ASTRA 4A

Last updated on Thu Sep 10 2026 00:02:56 GMT+0000 (Coordinated Universal Time)

1 32299U 07057A 26252.58635498 .00000011 00000+0 00000+0 0 9999 2 32299 0.0461 299.0340 0002336 235.4417 30.0471 1.00271610 52498
UTC large
Height (km)
Speed (km/s)
/
Latitude / Longitude
Inclination (degrees)
Orbital Period (minutes)
Azimuth
Elevation
Range (km)
Doppler Factor

Next 0 passes for location: London (51.5072 / 0.1276)

No passes found over London.
ASTRA 4A